Vitoria, Spain

1:51 AM CEST on September 27, 2016 (GMT +0200)
Foronda

Weather History for LEVT - March, 2014

Change the Weather History Date:

Sunday, March 16, 2014

  Actual Average Record
Temperature  
Mean Temperature 49 °F -  
Max Temperature 65 °F 60 °F 73 °F (2005)
Min Temperature 33 °F 36 °F 29 °F (2016)
Degree Days  
Heating Degree Days 16    
Moisture  
Dew Point 37 °F    
Average Humidity 68    
Maximum Humidity 100    
Minimum Humidity 26    
Precipitation  
Precipitation 0.00 in - - ()
Sea Level Pressure  
Sea Level Pressure 30.40 in    
Wind  
Wind Speed 4 mph ()    
Max Wind Speed 18 mph    
Max Gust Speed -    
Visibility 5.4 miles    
Events      
Averages and records for this station are not official NWS values.
T = Trace of Precipitation, MM = Missing Value Source: Averaged Metar Reports

Daily Weather History Graph

Daily Weather History Graph

Search for Another Location

Airport or City:

Trip Planner

Search our weather history database for the weather conditions in past years. The results will help you decide how hot, cold, wet, or windy it might be!

Date:

Astronomy

Mar. 16, 2014 Rise Set
Actual Time 7:21 AM CET 7:18 PM CET
Civil Twilight 6:53 AM CET 7:46 PM CET
Nautical Twilight 6:20 AM CET 8:19 PM CET
Astronomical Twilight 5:47 AM CET 8:53 PM CET
Moon 7:22 PM CET (3/16) 6:57 AM CET (3/16)
Length of Visible Light 12h 53m
Length of Day
11h 56m
Full, 100% of the Moon is Illuminated
Mar 16
Full
Mar 16
Full
Mar 24
Last Quarter
Mar 30
New
Apr 7
First Quarter

Hourly Weather History & Observations

Time (CET) Temp. Windchill Dew Point Humidity Pressure Visibility Wind Dir Wind Speed Gust Speed Precip Events Conditions
12:00 AM 44.6 °F - 39.2 °F 81% 30.51 in 6.2 mi North 2.3 mph - N/A   Overcast
12:30 AM 44.6 °F - 41.0 °F 87% 30.51 in 6.2 mi Variable 2.3 mph - N/A   Mostly Cloudy
1:00 AM 44.6 °F - 39.2 °F 81% 30.48 in 5.0 mi Variable 2.3 mph - N/A   Scattered Clouds
1:30 AM 42.8 °F - 39.2 °F 87% 30.48 in 5.0 mi Variable 1.2 mph - N/A   Scattered Clouds
2:00 AM 42.8 °F - 39.2 °F 87% 30.48 in 5.0 mi Variable 2.3 mph - N/A   Scattered Clouds
2:30 AM 42.8 °F 38.6 °F 39.2 °F 87% 30.48 in 5.0 mi NNE 6.9 mph - N/A   Partly Cloudy
3:00 AM 42.8 °F 37.5 °F 39.2 °F 87% 30.45 in 5.0 mi North 9.2 mph - N/A   Partly Cloudy
3:30 AM 41.0 °F - 37.4 °F 87% 30.45 in 5.0 mi Variable 1.2 mph - N/A   Partly Cloudy
4:00 AM 39.2 °F - 35.6 °F 87% 30.45 in 5.0 mi Calm Calm - N/A   Unknown
4:30 AM 37.4 °F - 37.4 °F 100% 30.45 in 5.0 mi Calm Calm - N/A   Unknown
5:00 AM 37.4 °F - 37.4 °F 100% 30.42 in 5.0 mi Calm Calm - N/A   Unknown
5:30 AM 37.4 °F - 35.6 °F 93% 30.42 in 5.0 mi Calm Calm - N/A   Unknown
6:00 AM 37.4 °F - 35.6 °F 93% 30.42 in 5.0 mi Variable 1.2 mph - N/A   Partly Cloudy
6:30 AM 35.6 °F - 35.6 °F 100% 30.42 in 5.0 mi Calm Calm - N/A   Partly Cloudy
7:00 AM 35 °F - 34 °F 92% 30.51 in 4 mi Calm Calm - -   Mist
7:00 AM 35.6 °F - 33.8 °F 93% 30.42 in 4.3 mi Calm Calm - N/A   Partly Cloudy
7:30 AM 33.8 °F - 33.8 °F 100% 30.42 in 3.7 mi NE 1.2 mph - N/A   Partly Cloudy
8:00 AM 35.6 °F - 35.6 °F 100% 30.45 in 3.1 mi NE 2.3 mph - N/A   Scattered Clouds
8:30 AM 35.6 °F - 33.8 °F 93% 30.45 in 1.9 mi SW 1.2 mph - N/A   Mostly Cloudy
9:00 AM 39.2 °F - 39.2 °F 100% 30.45 in 2.5 mi Variable 2.3 mph - N/A   Mostly Cloudy
9:30 AM 41.0 °F - 41.0 °F 100% 30.45 in 3.1 mi Variable 2.3 mph - N/A   Mostly Cloudy
10:00 AM 47 °F - 41 °F 73% 30.49 in 4 mi West 2.3 mph - -   Mist
10:00 AM 44.6 °F - 41.0 °F 87% 30.45 in 3.7 mi Variable 1.2 mph - N/A   Scattered Clouds
10:30 AM 46.4 °F - 41.0 °F 81% 30.45 in 3.7 mi Calm Calm - N/A   Partly Cloudy
11:00 AM 48.2 °F - 41.0 °F 76% 30.45 in 3.7 mi Calm Calm - N/A   Partly Cloudy
11:30 AM 51.8 °F - 41.0 °F 67% 30.42 in 5.0 mi Variable 2.3 mph - N/A   Unknown
12:00 PM 55.4 °F - 42.8 °F 63% 30.42 in - ENE 4.6 mph - N/A   Clear
12:30 PM 57.2 °F - 42.8 °F 59% 30.42 in - ENE 3.5 mph - N/A   Clear
1:00 PM 62 °F - 36 °F 26% 30.37 in 9 mi NE 13.8 mph - -  
1:00 PM 60.8 °F - 35.6 °F 39% 30.39 in - NE 12.7 mph - N/A   Clear
1:30 PM 62.6 °F - 35.6 °F 37% 30.39 in - NE 16.1 mph - N/A   Clear
2:00 PM 62.6 °F - 33.8 °F 34% 30.36 in - NE 16.1 mph - N/A   Clear
2:30 PM 64.4 °F - 33.8 °F 32% 30.36 in - NE 16.1 mph - N/A   Clear
3:00 PM 64.4 °F - 33.8 °F 32% 30.33 in - NE 15.0 mph - N/A   Clear
3:30 PM 64.4 °F - 37.4 °F 37% 30.33 in - North 15.0 mph - N/A   Clear
4:00 PM 65 °F - 38 °F 26% 30.30 in 16 mi North 18.4 mph - -  
4:00 PM 62.6 °F - 37.4 °F 39% 30.33 in - North 17.3 mph - N/A   Clear
4:30 PM 62.6 °F - 37.4 °F 39% 30.33 in - North 18.4 mph - N/A   Clear
5:00 PM 62.6 °F - 37.4 °F 39% 30.33 in - North 16.1 mph - N/A   Clear
5:30 PM 60.8 °F - 35.6 °F 39% 30.33 in - North 13.8 mph - N/A   Clear
6:00 PM 59.0 °F - 37.4 °F 45% 30.33 in - North 15.0 mph - N/A   Clear
6:30 PM 57.2 °F - 35.6 °F 44% 30.33 in - North 11.5 mph - N/A   Clear
7:00 PM 56 °F - 37 °F 37% 30.33 in 16 mi North 11.5 mph - -  
7:00 PM 55.4 °F - 35.6 °F 47% 30.33 in - North 10.4 mph - N/A   Clear
7:30 PM 53.6 °F - 35.6 °F 51% 30.33 in - NNE 9.2 mph - N/A   Clear
8:00 PM 51.8 °F - 37.4 °F 58% 30.33 in - NNW 3.5 mph - N/A   Clear
8:30 PM 50.0 °F - 35.6 °F 58% 30.33 in - Variable 2.3 mph - N/A   Clear
9:00 PM 50.0 °F - 33.8 °F 54% 30.33 in - North 3.5 mph - N/A   Clear
9:30 PM 46.4 °F - 35.6 °F 66% 30.33 in - Calm Calm - N/A   Clear
10:00 PM 44.6 °F 43.1 °F 33.8 °F 66% 30.33 in - NW 3.5 mph - N/A   Clear
10:30 PM 41.0 °F - 33.8 °F 76% 30.33 in - Calm Calm - N/A   Clear
11:00 PM 41.0 °F 39.0 °F 35.6 °F 81% 30.33 in - WSW 3.5 mph - N/A   Clear
11:30 PM 41.0 °F - 35.6 °F 81% 30.33 in - SSW 2.3 mph - N/A   Clear